Hourly Data Report for October 29, 2015

All times are specified in Local Standard Time (LST). Add 1 hour to adjust for Daylight Saving Time where and when it is observed.

PETAWAWA AWOS 2
ONTARIO

45°57'00.000" N
77°19'00.000" W
130.10 m
6106396
71625
YWA

Download Data

Hourly Data (October 2015)
Hourly Data Report for October 29, 2015
Temp Definition
°C
Dew Point Temp Definition
°C
Rel Hum Definition
%
Wind Dir Definition
10's deg

Wind Spd Definition
km/h
Visibility Definition
km
Stn Press Definition
kPa
Hmdx Definition


Wind Chill Definition


Weather Definition


TIME
00:00 8.3 8.0 98 13 19 5.6 98.03     Drizzle
01:00 8.5 8.1 97 12 11 3.5 97.91     Drizzle
02:00 8.7 8.5 99 14 17 11.3 97.88     LegendNANA
03:00 8.9 8.7 99 15 11 8.0 97.76     LegendNANA
04:00 9.1 9.0 99 14 17 1.4 97.72     LegendNANA
05:00 9.0 9.0 100 21 4 3.7 97.75     Drizzle
06:00 9.0 8.8 99 15 4 11.3 97.68     LegendNANA
07:00 8.9 8.8 99 14 6 0.3 97.67     LegendNANA
08:00 9.4 9.4 100 14 7 0.3 97.64     LegendNANA
09:00 9.9 9.8 99 13 15 14.5 97.57     LegendNANA
10:00 8.4 5.1 80 22 15 14.5 97.66     Rain
11:00 6.5 3.4 80 25 24 8.0 97.77     Rain
12:00 9.2 3.2 66 23 24 14.5 97.80     Moderate Drizzle
13:00 7.7 1.8 66 25 22 14.5 97.87     Drizzle
14:00 8.7 1.4 60 24 15 14.5 97.90     Drizzle
15:00 6.0 2.7 79 25 11 8.0 97.98     Rain
16:00 6.0 3.2 82 25 9 14.5 98.02     Drizzle
17:00 4.1 2.6 90 25 6 14.5 98.07     Drizzle
18:00 4.8 2.9 88 24 9 14.5 98.10     Rain
19:00 5.1 2.7 84 21 13 14.5 98.12     Rain
20:00 4.8 3.2 89 23 11 14.5 98.08     Rain
21:00 4.9 3.4 90 23 13 14.5 98.10     Rain
22:00 5.2 3.8 91 27 7 14.5 98.17     Drizzle
23:00 5.5 4.1 91 31 13 11.3 98.32     Drizzle

Notes on Data Quality.

Legend

  • E = Estimated
  • M = Missing
  • NA = Not Available
  • ‡ = Partner data that is not subject to review by the National Climate Archives
Date modified: